"Sample Date","Sample Time","Sensor Name","Sample Value","Units","Flow Rate","Sample Interval","Sample Volume","Laser Status","Number Channels","Micron Size 0","Counts/Channel 0","Micron Size 1","Counts/Channel 1","Micron Size 2","Counts/Channel 2","Micron Size 3","Counts/Channel 3","Micron Size 4","Counts/Channel 4","Micron Size 5","Counts/Channel 5","Micron Size 6","Counts/Channel 6","Micron Size 7","Counts/Channel 7","Micron Size 8","Counts/Channel 8","Micron Size 9","Counts/Channel 9","Micron Size 10","Counts/Channel 10","Micron Size 11","Counts/Channel 11","Micron Size 12","Counts/Channel 12","Micron Size 13","Counts/Channel 13","Micron Size 14","Counts/Channel 14","Micron Size 15","Counts/Channel 15","Micron Size 16","Counts/Channel 16","Micron Size 17","Counts/Channel 17","Micron Size 18","Counts/Channel 18","Micron Size 19","Counts/Channel 19","Micron Size 20","Counts/Channel 20","Micron Size 21","Counts/Channel 21","Micron Size 22","Counts/Channel 22","Micron Size 23","Counts/Channel 23","Micron Size 24","Counts/Channel 24","Micron Size 25","Counts/Channel 25","Micron Size 26","Counts/Channel 26","Micron Size 27","Counts/Channel 27","Micron Size 28","Counts/Channel 28","Micron Size 29","Counts/Channel 29","Micron Size 30","Counts/Channel 30","Micron Size 31","Counts/Channel 31"
"07/11/06","07:00:04","AMMA06",67589.000,"cc",28332.272,6.00,2833.227,1,6,0.100,37922.000,0.200,22915.000,0.300,5636.000,0.500,756.000,1.000,360.000,5.000,0
"07/11/06","07:00:10","AMMA06",67395.000,"cc",28333.320,6.00,2833.332,1,6,0.100,38021.000,0.200,22743.000,0.300,5443.000,0.500,763.000,1.000,425.000,5.000,0
"07/11/06","07:00:16","AMMA06",65758.000,"cc",28288.008,6.00,2828.801,1,6,0.100,37037.000,0.200,22326.000,0.300,5385.000,0.500,685.000,1.000,325.000,5.000,0
"07/11/06","07:00:22","AMMA06",67559.000,"cc",28296.041,6.00,2829.604,1,6,0.100,37783.000,0.200,22752.000,0.300,5710.000,0.500,875.000,1.000,439.000,5.000,0
"07/11/06","07:00:28","AMMA06",66359.000,"cc",28313.475,6.00,2831.348,1,6,0.100,37664.000,0.200,22133.000,0.300,5537.000,0.500,702.000,1.000,323.000,5.000,0
"07/11/06","07:00:34","AMMA06",66847.000,"cc",28324.598,6.00,2832.460,1,6,0.100,37436.000,0.200,22736.000,0.300,5476.000,0.500,762.000,1.000,437.000,5.000,0
"07/11/06","07:00:40","AMMA06",67350.000,"cc",28315.232,6.00,2831.523,1,6,0.100,38271.000,0.200,22648.000,0.300,5380.000,0.500,738.000,1.000,313.000,5.000,0
"07/11/06","07:00:46","AMMA06",68524.000,"cc",28321.922,6.00,2832.192,1,6,0.100,38360.000,0.200,22655.000,0.300,5919.000,0.500,995.000,1.000,595.000,5.000,0
"07/11/06","07:00:52","AMMA06",68120.000,"cc",28317.871,6.00,2831.787,1,6,0.100,38223.000,0.200,22922.000,0.300,5728.000,0.500,820.000,1.000,427.000,5.000,0
"07/11/06","07:00:58","AMMA06",71407.000,"cc",28343.951,6.00,2834.395,1,6,0.100,39858.000,0.200,23628.000,0.300,6212.000,0.500,1108.000,1.000,601.000,5.000,0
"07/11/06","07:01:04","AMMA06",69887.000,"cc",28328.129,6.00,2832.813,1,6,0.100,39665.000,0.200,23233.000,0.300,5744.000,0.500,808.000,1.000,436.000,5.000,1.000
"07/11/06","07:01:10","AMMA06",71212.000,"cc",28311.742,6.00,2831.174,1,6,0.100,39577.000,0.200,23560.000,0.300,6090.000,0.500,1277.000,1.000,708.000,5.000,0
"07/11/06","07:01:16","AMMA06",70935.000,"cc",28304.197,6.00,2830.420,1,6,0.100,39870.000,0.200,23707.000,0.300,5937.000,0.500,919.000,1.000,502.000,5.000,0
"07/11/06","07:01:22","AMMA06",72193.000,"cc",28330.426,6.00,2833.043,1,6,0.100,39769.000,0.200,23872.000,0.300,6322.000,0.500,1392.000,1.000,838.000,5.000,0
"07/11/06","07:01:28","AMMA06",73603.000,"cc",28297.994,6.00,2829.800,1,6,0.100,41265.000,0.200,24152.000,0.300,6275.000,0.500,1189.000,1.000,722.000,5.000,0
"07/11/06","07:01:34","AMMA06",66836.000,"cc",28299.736,6.00,2829.974,1,6,0.100,37864.000,0.200,22225.000,0.300,5567.000,0.500,773.000,1.000,407.000,5.000,0
"07/11/06","07:01:40","AMMA06",66249.000,"cc",28314.606,6.00,2831.461,1,6,0.100,37235.000,0.200,22480.000,0.300,5468.000,0.500,736.000,1.000,330.000,5.000,0
"07/11/06","07:01:46","AMMA06",67862.000,"cc",28309.947,6.00,2830.995,1,6,0.100,37580.000,0.200,22871.000,0.300,5727.000,0.500,1121.000,1.000,563.000,5.000,0
"07/11/06","07:01:52","AMMA06",69190.000,"cc",28385.707,6.00,2838.571,1,6,0.100,37988.000,0.200,22978.000,0.300,6197.000,0.500,1279.000,1.000,748.000,5.000,0
"07/11/06","07:01:58","AMMA06",69236.000,"cc",28310.283,6.00,2831.029,1,6,0.100,38910.000,0.200,22958.000,0.300,5905.000,0.500,969.000,1.000,494.000,5.000,0
"07/11/06","07:02:04","AMMA06",69400.000,"cc",28303.217,6.00,2830.322,1,6,0.100,38575.000,0.200,22877.000,0.300,6082.000,0.500,1211.000,1.000,655.000,5.000,0
"07/11/06","07:02:10","AMMA06",69748.000,"cc",28307.234,6.00,2830.724,1,6,0.100,39214.000,0.200,22974.000,0.300,5995.000,0.500,968.000,1.000,597.000,5.000,0
"07/11/06","07:02:16","AMMA06",68562.000,"cc",28364.490,6.00,2836.449,1,6,0.100,38317.000,0.200,22716.000,0.300,5837.000,0.500,1085.000,1.000,607.000,5.000,0
"07/11/06","07:02:22","AMMA06",66435.000,"cc",28288.695,6.00,2828.870,1,6,0.100,37308.000,0.200,22311.000,0.300,5540.000,0.500,879.000,1.000,396.000,5.000,1.000
"07/11/06","07:02:28","AMMA06",72257.000,"cc",28346.365,6.00,2834.637,1,6,0.100,41943.000,0.200,23551.000,0.300,5583.000,0.500,769.000,1.000,411.000,5.000,0
"07/11/06","07:02:34","AMMA06",68894.000,"cc",28287.242,6.00,2828.724,1,6,0.100,37782.000,0.200,22801.000,0.300,6229.000,0.500,1262.000,1.000,820.000,5.000,0
"07/11/06","07:02:40","AMMA06",77429.000,"cc",28277.090,6.00,2827.709,1,6,0.100,44770.000,0.200,24273.000,0.300,6461.000,0.500,1192.000,1.000,733.000,5.000,0
"07/11/06","07:02:46","AMMA06",78941.000,"cc",28293.229,6.00,2829.323,1,6,0.100,46460.000,0.200,24641.000,0.300,6285.000,0.500,958.000,1.000,597.000,5.000,0
"07/11/06","07:02:52","AMMA06",70075.000,"cc",28249.707,6.00,2824.971,1,6,0.100,39966.000,0.200,22740.000,0.300,5787.000,0.500,979.000,1.000,603.000,5.000,0
"07/11/06","07:02:58","AMMA06",66925.000,"cc",28308.133,6.00,2830.814,1,6,0.100,37860.000,0.200,22042.000,0.300,5585.000,0.500,922.000,1.000,516.000,5.000,0
"07/11/06","07:03:04","AMMA06",72962.000,"cc",28379.529,6.00,2837.953,1,6,0.100,42587.000,0.200,22991.000,0.300,5891.000,0.500,910.000,1.000,583.000,5.000,0
"07/11/06","07:03:10","AMMA06",83820.000,"cc",28314.115,6.00,2831.412,1,6,0.100,49145.000,0.200,25272.000,0.300,6974.000,0.500,1455.000,1.000,974.000,5.000,0
"07/11/06","07:03:16","AMMA06",80308.000,"cc",28340.336,6.00,2834.034,1,6,0.100,47322.000,0.200,24417.000,0.300,6652.000,0.500,1182.000,1.000,735.000,5.000,0
"07/11/06","07:03:22","AMMA06",79004.000,"cc",28311.260,6.00,2831.126,1,6,0.100,45901.000,0.200,24449.000,0.300,6557.000,0.500,1268.000,1.000,828.000,5.000,1.000
"07/11/06","07:03:28","AMMA06",86311.000,"cc",28304.088,6.00,2830.409,1,6,0.100,51683.000,0.200,26093.000,0.300,6773.000,0.500,1096.000,1.000,666.000,5.000,0
"07/11/06","07:03:34","AMMA06",79190.000,"cc",28312.535,6.00,2831.254,1,6,0.100,46199.000,0.200,24964.000,0.300,6343.000,0.500,1061.000,1.000,623.000,5.000,0
"07/11/06","07:03:40","AMMA06",80830.000,"cc",28309.736,6.00,2830.974,1,6,0.100,48219.000,0.200,25296.000,0.300,6140.000,0.500,777.000,1.000,398.000,5.000,0
"07/11/06","07:03:46","AMMA06",67311.000,"cc",28396.150,6.00,2839.615,1,6,0.100,38177.000,0.200,22460.000,0.300,5559.000,0.500,761.000,1.000,354.000,5.000,0
"07/11/06","07:03:52","AMMA06",69233.000,"cc",28320.840,6.00,2832.084,1,6,0.100,39211.000,0.200,23250.000,0.300,5644.000,0.500,749.000,1.000,379.000,5.000,0
"07/11/06","07:03:58","AMMA06",85580.000,"cc",28299.061,6.00,2829.906,1,6,0.100,50093.000,0.200,26615.000,0.300,6874.000,0.500,1218.000,1.000,780.000,5.000,0
"07/11/06","07:04:04","AMMA06",95158.000,"cc",28276.846,6.00,2827.685,1,6,0.100,58069.000,0.200,28361.000,0.300,7076.000,0.500,1020.000,1.000,632.000,5.000,0
"07/11/06","07:04:10","AMMA06",73679.000,"cc",28269.799,6.00,2826.980,1,6,0.100,42554.000,0.200,23953.000,0.300,5936.000,0.500,800.000,1.000,436.000,5.000,0
"07/11/06","07:04:16","AMMA06",69796.000,"cc",28306.190,6.00,2830.619,1,6,0.100,39822.000,0.200,22985.000,0.300,5663.000,0.500,849.000,1.000,477.000,5.000,0
"07/11/06","07:04:22","AMMA06",87529.000,"cc",28371.508,6.00,2837.151,1,6,0.100,51949.000,0.200,26694.000,0.300,7109.000,0.500,1081.000,1.000,696.000,5.000,0
"07/11/06","07:04:28","AMMA06",81614.000,"cc",28364.947,6.00,2836.495,1,6,0.100,46993.000,0.200,25223.000,0.300,6988.000,0.500,1463.000,1.000,947.000,5.000,0
"07/11/06","07:04:34","AMMA06",80189.000,"cc",28372.979,6.00,2837.298,1,6,0.100,47531.000,0.200,24635.000,0.300,6420.000,0.500,983.000,1.000,620.000,5.000,0
"07/11/06","07:04:40","AMMA06",73399.000,"cc",28251.283,6.00,2825.128,1,6,0.100,42964.000,0.200,23471.000,0.300,5767.000,0.500,775.000,1.000,422.000,5.000,0
"07/11/06","07:04:46","AMMA06",78928.000,"cc",28282.643,6.00,2828.264,1,6,0.100,46988.000,0.200,24500.000,0.300,6198.000,0.500,804.000,1.000,438.000,5.000,0
"07/11/06","07:04:52","AMMA06",67113.000,"cc",28299.248,6.00,2829.925,1,6,0.100,38225.000,0.200,22052.000,0.300,5619.000,0.500,815.000,1.000,402.000,5.000,0
"07/11/06","07:04:58","AMMA06",67880.000,"cc",28351.248,6.00,2835.125,1,6,0.100,38438.000,0.200,21942.000,0.300,5877.000,0.500,1055.000,1.000,568.000,5.000,0
"07/11/06","07:05:04","AMMA06",69947.000,"cc",28297.553,6.00,2829.755,1,6,0.100,40837.000,0.200,22198.000,0.300,5709.000,0.500,770.000,1.000,433.000,5.000,0
"07/11/06","07:05:10","AMMA06",65597.000,"cc",28301.420,6.00,2830.142,1,6,0.100,37767.000,0.200,21111.000,0.300,5455.000,0.500,818.000,1.000,446.000,5.000,0
"07/11/06","07:05:16","AMMA06",66148.000,"cc",28352.426,6.00,2835.243,1,6,0.100,38766.000,0.200,21031.000,0.300,5276.000,0.500,710.000,1.000,365.000,5.000,0
"07/11/06","07:05:22","AMMA06",72720.000,"cc",28331.410,6.00,2833.141,1,6,0.100,43206.000,0.200,22496.000,0.300,5743.000,0.500,845.000,1.000,430.000,5.000,0
"07/11/06","07:05:28","AMMA06",65696.000,"cc",28318.549,6.00,2831.855,1,6,0.100,38260.000,0.200,20846.000,0.300,5481.000,0.500,741.000,1.000,368.000,5.000,0
"07/11/06","07:05:34","AMMA06",63663.000,"cc",28285.600,6.00,2828.560,1,6,0.100,36611.000,0.200,20660.000,0.300,5436.000,0.500,678.000,1.000,278.000,5.000,0
"07/11/06","07:05:40","AMMA06",64572.000,"cc",28310.270,6.00,2831.027,1,6,0.100,36617.000,0.200,21383.000,0.300,5507.000,0.500,750.000,1.000,315.000,5.000,0
"07/11/06","07:05:46","AMMA06",68592.000,"cc",28291.283,6.00,2829.128,1,6,0.100,38327.000,0.200,21855.000,0.300,6321.000,0.500,1294.000,1.000,794.000,5.000,1.000
"07/11/06","07:05:52","AMMA06",75929.000,"cc",28369.828,6.00,2836.983,1,6,0.100,44319.000,0.200,23532.000,0.300,6323.000,0.500,1109.000,1.000,646.000,5.000,0
"07/11/06","07:05:58","AMMA06",74213.000,"cc",28341.471,6.00,2834.147,1,6,0.100,43854.000,0.200,22758.000,0.300,6188.000,0.500,924.000,1.000,489.000,5.000,0
"07/11/06","07:06:04","AMMA06",65173.000,"cc",28290.957,6.00,2829.096,1,6,0.100,37219.000,0.200,21028.000,0.300,5612.000,0.500,870.000,1.000,444.000,5.000,0
"07/11/06","07:06:10","AMMA06",64671.000,"cc",28228.949,6.00,2822.895,1,6,0.100,37166.000,0.200,20845.000,0.300,5481.000,0.500,827.000,1.000,352.000,5.000,0
"07/11/06","07:06:16","AMMA06",65060.000,"cc",28313.709,6.00,2831.371,1,6,0.100,37172.000,0.200,21091.000,0.300,5651.000,0.500,792.000,1.000,354.000,5.000,0
"07/11/06","07:06:22","AMMA06",64469.000,"cc",28319.662,6.00,2831.966,1,6,0.100,37127.000,0.200,20793.000,0.300,5449.000,0.500,749.000,1.000,350.000,5.000,1.000
"07/11/06","07:06:28","AMMA06",67866.000,"cc",28349.102,6.00,2834.910,1,6,0.100,39107.000,0.200,21598.000,0.300,5863.000,0.500,817.000,1.000,481.000,5.000,0
"07/11/06","07:06:34","AMMA06",64782.000,"cc",28373.740,6.00,2837.374,1,6,0.100,37056.000,0.200,20844.000,0.300,5672.000,0.500,816.000,1.000,394.000,5.000,0
"07/11/06","07:06:40","AMMA06",64528.000,"cc",28349.092,6.00,2834.909,1,6,0.100,36963.000,0.200,20879.000,0.300,5419.000,0.500,885.000,1.000,382.000,5.000,0
"07/11/06","07:06:46","AMMA06",64319.000,"cc",28302.002,6.00,2830.200,1,6,0.100,36471.000,0.200,21192.000,0.300,5481.000,0.500,779.000,1.000,396.000,5.000,0
"07/11/06","07:06:52","AMMA06",64601.000,"cc",28254.713,6.00,2825.471,1,6,0.100,36753.000,0.200,21010.000,0.300,5568.000,0.500,862.000,1.000,408.000,5.000,0
"07/11/06","07:06:58","AMMA06",65264.000,"cc",28315.582,6.00,2831.558,1,6,0.100,37351.000,0.200,21108.000,0.300,5611.000,0.500,809.000,1.000,385.000,5.000,0
"07/11/06","07:07:04","AMMA06",64644.000,"cc",28319.725,6.00,2831.973,1,6,0.100,36949.000,0.200,21235.000,0.300,5445.000,0.500,727.000,1.000,288.000,5.000,0
"07/11/06","07:07:10","AMMA06",64602.000,"cc",28353.475,6.00,2835.348,1,6,0.100,37060.000,0.200,21206.000,0.300,5381.000,0.500,662.000,1.000,293.000,5.000,0
"07/11/06","07:07:16","AMMA06",65246.000,"cc",28312.647,6.00,2831.265,1,6,0.100,37306.000,0.200,21446.000,0.300,5310.000,0.500,812.000,1.000,372.000,5.000,0
"07/11/06","07:07:22","AMMA06",64312.000,"cc",28299.381,6.00,2829.938,1,6,0.100,36929.000,0.200,21035.000,0.300,5366.000,0.500,687.000,1.000,295.000,5.000,0
"07/11/06","07:07:28","AMMA06",65026.000,"cc",28344.422,6.00,2834.442,1,6,0.100,37196.000,0.200,21307.000,0.300,5447.000,0.500,742.000,1.000,333.000,5.000,1.000
"07/11/06","07:07:34","AMMA06",64495.000,"cc",28327.254,6.00,2832.726,1,6,0.100,37276.000,0.200,20936.000,0.300,5339.000,0.500,647.000,1.000,297.000,5.000,0
"07/11/06","07:07:40","AMMA06",64445.000,"cc",28272.791,6.00,2827.279,1,6,0.100,36972.000,0.200,21031.000,0.300,5400.000,0.500,702.000,1.000,340.000,5.000,0
"07/11/06","07:07:46","AMMA06",65300.000,"cc",28279.717,6.00,2827.972,1,6,0.100,37481.000,0.200,21228.000,0.300,5462.000,0.500,771.000,1.000,358.000,5.000,0
"07/11/06","07:07:52","AMMA06",65383.000,"cc",28335.938,6.00,2833.594,1,6,0.100,37430.000,0.200,21202.000,0.300,5506.000,0.500,821.000,1.000,424.000,5.000,0
"07/11/06","07:07:58","AMMA06",65160.000,"cc",28343.477,6.00,2834.348,1,6,0.100,37339.000,0.200,21317.000,0.300,5420.000,0.500,723.000,1.000,361.000,5.000,0
"07/11/06","07:08:04","AMMA06",64656.000,"cc",28313.463,6.00,2831.346,1,6,0.100,37011.000,0.200,21210.000,0.300,5389.000,0.500,705.000,1.000,341.000,5.000,0
"07/11/06","07:08:10","AMMA06",64741.000,"cc",28330.416,6.00,2833.042,1,6,0.100,37312.000,0.200,21035.000,0.300,5434.000,0.500,656.000,1.000,304.000,5.000,0
"07/11/06","07:08:16","AMMA06",64764.000,"cc",28267.813,6.00,2826.782,1,6,0.100,37146.000,0.200,21239.000,0.300,5372.000,0.500,725.000,1.000,281.000,5.000,1.000
"07/11/06","07:08:22","AMMA06",66602.000,"cc",28275.541,6.00,2827.554,1,6,0.100,37774.000,0.200,21632.000,0.300,5850.000,0.500,876.000,1.000,470.000,5.000,0
"07/11/06","07:08:28","AMMA06",67354.000,"cc",28364.834,6.00,2836.484,1,6,0.100,38402.000,0.200,21534.000,0.300,5719.000,0.500,1099.000,1.000,600.000,5.000,0
"07/11/06","07:08:34","AMMA06",68469.000,"cc",28327.516,6.00,2832.752,1,6,0.100,37389.000,0.200,22396.000,0.300,6656.000,0.500,1333.000,1.000,695.000,5.000,0
"07/11/06","07:08:40","AMMA06",68260.000,"cc",28356.590,6.00,2835.659,1,6,0.100,37351.000,0.200,22868.000,0.300,6627.000,0.500,963.000,1.000,450.000,5.000,1.000
"07/11/06","07:08:46","AMMA06",72473.000,"cc",28335.869,6.00,2833.587,1,6,0.100,39810.000,0.200,23755.000,0.300,7093.000,0.500,1197.000,1.000,618.000,5.000,0
"07/11/06","07:08:52","AMMA06",70486.000,"cc",28302.193,6.00,2830.220,1,6,0.100,38368.000,0.200,23279.000,0.300,6816.000,0.500,1305.000,1.000,718.000,5.000,0
"07/11/06","07:08:58","AMMA06",67441.000,"cc",28358.873,6.00,2835.888,1,6,0.100,36924.000,0.200,22575.000,0.300,6378.000,0.500,1047.000,1.000,517.000,5.000,0
"07/11/06","07:09:04","AMMA06",66674.000,"cc",28307.387,6.00,2830.739,1,6,0.100,36691.000,0.200,22317.000,0.300,6218.000,0.500,981.000,1.000,467.000,5.000,0
"07/11/06","07:09:10","AMMA06",65344.000,"cc",28290.729,6.00,2829.073,1,6,0.100,36498.000,0.200,21892.000,0.300,5741.000,0.500,823.000,1.000,390.000,5.000,0
"07/11/06","07:09:16","AMMA06",65668.000,"cc",28283.004,6.00,2828.301,1,6,0.100,36671.000,0.200,22034.000,0.300,5760.000,0.500,834.000,1.000,369.000,5.000,0
"07/11/06","07:09:22","AMMA06",65501.000,"cc",28298.260,6.00,2829.826,1,6,0.100,36926.000,0.200,21715.000,0.300,5745.000,0.500,759.000,1.000,356.000,5.000,0
"07/11/06","07:09:28","AMMA06",64172.000,"cc",28301.318,6.00,2830.132,1,6,0.100,36051.000,0.200,21608.000,0.300,5456.000,0.500,764.000,1.000,293.000,5.000,0
"07/11/06","07:09:34","AMMA06",64960.000,"cc",28342.381,6.00,2834.238,1,6,0.100,36214.000,0.200,21758.000,0.300,5784.000,0.500,829.000,1.000,375.000,5.000,0
"07/11/06","07:09:40","AMMA06",64573.000,"cc",28360.389,6.00,2836.039,1,6,0.100,36143.000,0.200,21738.000,0.300,5514.000,0.500,831.000,1.000,347.000,5.000,0
"07/11/06","07:09:46","AMMA06",67430.000,"cc",28326.627,6.00,2832.663,1,6,0.100,38037.000,0.200,22080.000,0.300,5961.000,0.500,893.000,1.000,459.000,5.000,0
"07/11/06","07:09:52","AMMA06",65161.000,"cc",28307.260,6.00,2830.726,1,6,0.100,36574.000,0.200,21554.000,0.300,5673.000,0.500,862.000,1.000,497.000,5.000,1.000
"07/11/06","07:09:58","AMMA06",64471.000,"cc",28292.643,6.00,2829.264,1,6,0.100,36722.000,0.200,21344.000,0.300,5286.000,0.500,762.000,1.000,352.000,5.000,5.000
"07/11/06","07:10:04","AMMA06",63578.000,"cc",28288.740,6.00,2828.874,1,6,0.100,36396.000,0.200,20990.000,0.300,5208.000,0.500,675.000,1.000,309.000,5.000,0
"07/11/06","07:10:10","AMMA06",63493.000,"cc",28367.377,6.00,2836.738,1,6,0.100,36270.000,0.200,21041.000,0.300,5233.000,0.500,650.000,1.000,299.000,5.000,0
"07/11/06","07:10:16","AMMA06",64182.000,"cc",28331.527,6.00,2833.153,1,6,0.100,36940.000,0.200,21219.000,0.300,5033.000,0.500,651.000,1.000,339.000,5.000,0
"07/11/06","07:10:22","AMMA06",64314.000,"cc",28240.371,6.00,2824.037,1,6,0.100,37020.000,0.200,20924.000,0.300,5260.000,0.500,745.000,1.000,365.000,5.000,0
"07/11/06","07:10:28","AMMA06",64416.000,"cc",28355.215,6.00,2835.522,1,6,0.100,37176.000,0.200,20879.000,0.300,5263.000,0.500,693.000,1.000,405.000,5.000,0
"07/11/06","07:10:34","AMMA06",66784.000,"cc",28336.094,6.00,2833.610,1,6,0.100,37965.000,0.200,21552.000,0.300,5531.000,0.500,1077.000,1.000,659.000,5.000,0
"07/11/06","07:10:40","AMMA06",63418.000,"cc",28304.971,6.00,2830.497,1,6,0.100,36754.000,0.200,20613.000,0.300,5102.000,0.500,629.000,1.000,320.000,5.000,0
"07/11/06","07:10:46","AMMA06",63811.000,"cc",28298.209,6.00,2829.821,1,6,0.100,37433.000,0.200,20466.000,0.300,5061.000,0.500,585.000,1.000,266.000,5.000,0
"07/11/06","07:10:52","AMMA06",64223.000,"cc",28293.617,6.00,2829.362,1,6,0.100,37407.000,0.200,20621.000,0.300,5118.000,0.500,658.000,1.000,419.000,5.000,0
"07/11/06","07:10:58","AMMA06",65359.000,"cc",28317.768,6.00,2831.777,1,6,0.100,37697.000,0.200,20859.000,0.300,5339.000,0.500,896.000,1.000,568.000,5.000,0
"07/11/06","07:11:04","AMMA06",67660.000,"cc",28396.787,6.00,2839.679,1,6,0.100,39780.000,0.200,21178.000,0.300,5353.000,0.500,849.000,1.000,500.000,5.000,0
"07/11/06","07:11:10","AMMA06",70882.000,"cc",28338.631,6.00,2833.863,1,6,0.100,42225.000,0.200,21969.000,0.300,5508.000,0.500,780.000,1.000,400.000,5.000,0
"07/11/06","07:11:16","AMMA06",66930.000,"cc",28347.145,6.00,2834.715,1,6,0.100,39455.000,0.200,21172.000,0.300,5306.000,0.500,639.000,1.000,358.000,5.000,0
"07/11/06","07:11:22","AMMA06",66058.000,"cc",28329.266,6.00,2832.927,1,6,0.100,38858.000,0.200,21018.000,0.300,5225.000,0.500,642.000,1.000,315.000,5.000,0
"07/11/06","07:11:28","AMMA06",66337.000,"cc",28286.361,6.00,2828.636,1,6,0.100,39236.000,0.200,20854.000,0.300,5221.000,0.500,685.000,1.000,341.000,5.000,0
"07/11/06","07:11:34","AMMA06",65359.000,"cc",28301.152,6.00,2830.116,1,6,0.100,38224.000,0.200,20873.000,0.300,5254.000,0.500,673.000,1.000,335.000,5.000,0
"07/11/06","07:11:40","AMMA06",65586.000,"cc",28256.762,6.00,2825.676,1,6,0.100,38446.000,0.200,20900.000,0.300,5249.000,0.500,680.000,1.000,311.000,5.000,0
"07/11/06","07:11:46","AMMA06",66691.000,"cc",28345.506,6.00,2834.551,1,6,0.100,38383.000,0.200,21489.000,0.300,5446.000,0.500,858.000,1.000,515.000,5.000,0
"07/11/06","07:11:52","AMMA06",66859.000,"cc",28309.883,6.00,2830.989,1,6,0.100,38630.000,0.200,21279.000,0.300,5556.000,0.500,898.000,1.000,496.000,5.000,0
"07/11/06","07:11:58","AMMA06",66878.000,"cc",28318.486,6.00,2831.849,1,6,0.100,38601.000,0.200,21291.000,0.300,5626.000,0.500,870.000,1.000,490.000,5.000,0
"07/11/06","07:12:04","AMMA06",88008.000,"cc",28343.387,6.00,2834.339,1,6,0.100,52527.000,0.200,25781.000,0.300,7270.000,0.500,1518.000,1.000,912.000,5.000,0
"07/11/06","07:12:10","AMMA06",87688.000,"cc",28294.373,6.00,2829.438,1,6,0.100,53596.000,0.200,25663.000,0.300,6661.000,0.500,1139.000,1.000,629.000,5.000,0
"07/11/06","07:12:16","AMMA06",73226.000,"cc",28306.664,6.00,2830.667,1,6,0.100,42162.000,0.200,22900.000,0.300,6217.000,0.500,1174.000,1.000,773.000,5.000,0
"07/11/06","07:12:22","AMMA06",83122.000,"cc",28297.252,6.00,2829.725,1,6,0.100,48518.000,0.200,25135.000,0.300,7041.000,0.500,1466.000,1.000,962.000,5.000,0
"07/11/06","07:12:28","AMMA06",73335.000,"cc",28377.947,6.00,2837.795,1,6,0.100,42413.000,0.200,23293.000,0.300,6070.000,0.500,1002.000,1.000,556.000,5.000,1.000
"07/11/06","07:12:34","AMMA06",66711.000,"cc",28255.992,6.00,2825.599,1,6,0.100,38080.000,0.200,21710.000,0.300,5715.000,0.500,817.000,1.000,389.000,5.000,0
"07/11/06","07:12:40","AMMA06",67905.000,"cc",28309.473,6.00,2830.948,1,6,0.100,38161.000,0.200,22243.000,0.300,5924.000,0.500,1013.000,1.000,564.000,5.000,0
"07/11/06","07:12:46","AMMA06",82531.000,"cc",28325.404,6.00,2832.541,1,6,0.100,48894.000,0.200,25331.000,0.300,6709.000,0.500,1001.000,1.000,596.000,5.000,0
"07/11/06","07:12:52","AMMA06",92614.000,"cc",28353.600,6.00,2835.360,1,6,0.100,55921.000,0.200,27118.000,0.300,7472.000,0.500,1285.000,1.000,818.000,5.000,0
"07/11/06","07:12:58","AMMA06",71541.000,"cc",28354.459,6.00,2835.446,1,6,0.100,41350.000,0.200,22547.000,0.300,6041.000,0.500,1035.000,1.000,568.000,5.000,0
"07/11/06","07:13:04","AMMA06",65606.000,"cc",28265.963,6.00,2826.596,1,6,0.100,37671.000,0.200,21513.000,0.300,5432.000,0.500,695.000,1.000,295.000,5.000,0
"07/11/06","07:13:10","AMMA06",77214.000,"cc",28286.990,6.00,2828.699,1,6,0.100,41624.000,0.200,23769.000,0.300,7754.000,0.500,2406.000,1.000,1661.000,5.000,0
"07/11/06","07:13:16","AMMA06",72941.000,"cc",28315.371,6.00,2831.537,1,6,0.100,41154.000,0.200,23082.000,0.300,6555.000,0.500,1355.000,1.000,795.000,5.000,0
"07/11/06","07:13:22","AMMA06",72847.000,"cc",28335.619,6.00,2833.562,1,6,0.100,41091.000,0.200,22913.000,0.300,6516.000,0.500,1384.000,1.000,943.000,5.000,0
"07/11/06","07:13:28","AMMA06",71505.000,"cc",28332.047,6.00,2833.205,1,6,0.100,41518.000,0.200,22628.000,0.300,5895.000,0.500,946.000,1.000,517.000,5.000,1.000
"07/11/06","07:13:34","AMMA06",72274.000,"cc",28294.940,6.00,2829.494,1,6,0.100,42057.000,0.200,22864.000,0.300,6001.000,0.500,881.000,1.000,470.000,5.000,1.000
"07/11/06","07:13:40","AMMA06",67873.000,"cc",28348.330,6.00,2834.833,1,6,0.100,38824.000,0.200,21842.000,0.300,5803.000,0.500,885.000,1.000,519.000,5.000,0
"07/11/06","07:13:46","AMMA06",67753.000,"cc",28313.912,6.00,2831.391,1,6,0.100,38622.000,0.200,21802.000,0.300,5813.000,0.500,961.000,1.000,554.000,5.000,1.000
"07/11/06","07:13:52","AMMA06",66026.000,"cc",28287.475,6.00,2828.748,1,6,0.100,37798.000,0.200,21593.000,0.300,5518.000,0.500,758.000,1.000,359.000,5.000,0
"07/11/06","07:13:58","AMMA06",67598.000,"cc",28316.041,6.00,2831.604,1,6,0.100,38857.000,0.200,21930.000,0.300,5495.000,0.500,839.000,1.000,477.000,5.000,0
"07/11/06","07:14:04","AMMA06",75960.000,"cc",28341.990,6.00,2834.199,1,6,0.100,42330.000,0.200,23421.000,0.300,7128.000,0.500,1872.000,1.000,1209.000,5.000,0
"07/11/06","07:14:10","AMMA06",72084.000,"cc",28332.982,6.00,2833.298,1,6,0.100,41629.000,0.200,22720.000,0.300,6060.000,0.500,1062.000,1.000,613.000,5.000,0